CW9703 Weather Reports


time (UTC)temp
F
wind
direction
speed
knots
gust
knots
rain 1hr
in
rain 24hr
in
rain mn
in
humidity
%
barometer
mb
20240723051749 70 266 0.0 0.0 0.00 0.00 0.00 90 1015.1
20240723045549 71 261 0.9 2.6 0.00 0.00 0.00 91 1015.0
20240723043417 71 254 5.2 6.1 0.00 0.00 0.00 92 1015.1
20240723041147 71 223 4.3 7.0 0.00 0.00 0.00 91 1015.1
20240723034947 71 360 6.1 7.8 0.00 0.00 0.00 91 1015.0
20240723032746 71 360 3.5 8.7 0.00 0.00 0.00 92 1015.1
20240723030616 71 176 6.1 8.7 0.00 0.00 0.00 92 1015.2
20240723024346 71 162 9.6 9.6 0.00 0.00 0.00 87 1015.5
20240723022215 71 165 7.0 8.7 0.00 0.00 0.00 85 1015.3
20240723015945 71 147 2.6 6.1 0.00 0.00 0.00 84 1015.2
20240723013745 70 96 0.0 0.0 0.00 0.00 0.00 76 1014.9
20240723011545 70 84 0.0 1.7 0.00 0.00 0.00 75 1014.6
20240723005345 70 108 1.7 6.1 0.00 0.00 0.00 77 1014.5
20240723003144 70 109 0.0 2.6 0.00 0.00 0.00 75 1014.5
20240723001014 71 121 0.0 1.7 0.00 0.00 0.00 76 1014.5
20240722234745 71 129 0.9 6.1 0.00 0.00 0.00 76 1014.4
20240722232543 72 71 2.6 5.2 0.00 0.00 0.00 76 1014.5
20240722230343 72 116 5.2 6.1 0.00 0.00 0.00 75 1014.6
20240722224212 72 96 4.3 7.0 0.00 0.00 0.00 75 1014.7
20240722221942 72 117 7.8 9.6 0.00 0.00 0.00 71 1014.7
20240722215812 72 64 2.6 7.0 0.00 0.00 0.00 72 1014.7
20240722213542 73 360 7.8 8.7 0.00 0.00 0.00 78 1014.7
20240722211343 73 120 6.1 8.7 0.00 0.00 0.00 79 1014.9
20240722205141 74 124 1.7 7.0 0.00 0.00 0.00 76 1015.1
20240722203011 73 118 6.1 7.8 0.00 0.00 0.00 80 1015.5
20240722200742 72 360 7.0 7.8 0.00 0.00 0.00 80 1015.7
20240722194540 73 139 6.1 7.0 0.00 0.00 0.00 79 1016.0
20240722192410 73 130 5.2 5.2 0.00 0.00 0.00 82 1016.1
20240722190140 73 128 3.5 6.1 0.00 0.00 0.00 83 1016.3
20240722184009 73 360 4.3 6.1 0.00 0.00 0.00 83 1016.3
20240722181740 75 135 3.5 4.3 0.00 0.00 0.00 78 1016.4
20240722175539 76 156 4.3 5.2 0.00 0.00 0.00 78 1016.7
20240722173339 75 164 2.6 3.5 0.00 0.00 0.00 75 1016.7
20240722171138 72 157 1.7 3.5 0.00 0.00 0.00 85 1017.0
20240722164938 70 360 2.6 6.1 0.00 0.00 0.00 86 1017.0
20240722162738 70 130 0.0 0.0 0.00 0.00 0.00 85 1017.3
20240722160537 71 360 0.0 0.0 0.00 0.00 0.00 82 1017.5
20240722154337 71 360 0.0 0.0 0.00 0.00 0.00 83 1017.7
20240722152137 70 140 0.0 0.0 0.00 0.00 0.00 84 1017.8
20240722145936 71 134 0.0 0.0 0.00 0.00 0.00 80 1017.6
20240722143806 72 137 0.0 0.0 0.00 0.00 0.00 82 1017.6
20240722141536 70 132 0.0 0.0 0.00 0.00 0.00 83 1017.5
20240722135336 70 119 0.0 0.0 0.00 0.00 0.00 82 1017.5
20240722133205 70 130 0.0 0.0 0.00 0.00 0.00 84 1017.5
20240722130935 70 112 0.0 0.0 0.00 0.00 0.00 83 1017.5
20240722124806 68 43 0.0 0.0 0.00 0.00 0.00 84 1017.5
20240722122534 66 34 0.0 0.0 0.00 0.00 0.00 90 1017.5
20240722120334 64 33 0.0 0.0 0.00 0.00 0.00 90 1017.5
20240722114204 63 30 0.0 0.0 0.00 0.00 0.00 92 1017.6
20240722111935 63 31 0.0 0.0 0.00 0.00 0.00 92 1017.6
20240722105734 63 27 0.0 0.0 0.00 0.00 0.00 92 1017.5
20240722103533 63 26 0.0 0.0 0.00 0.00 0.00 92 1017.7
20240722101333 63 32 0.0 0.0 0.00 0.00 0.00 91 1017.6
20240722095132 62 29 0.0 0.0 0.00 0.00 0.00 91 1017.7
20240722093002 62 30 0.0 0.0 0.00 0.00 0.00 91 1017.7
20240722090732 62 30 0.0 0.0 0.00 0.00 0.00 91 1017.6
20240722084532 62 30 0.0 0.0 0.00 0.00 0.00 91 1017.7
20240722082331 63 30 0.0 0.0 0.00 0.00 0.00 91 1017.7
20240722080131 63 30 0.0 0.0 0.00 0.00 0.00 90 1017.6
20240722073932 63 28 0.0 0.0 0.00 0.00 0.00 91 1017.9
20240722071730 63 24 0.0 0.0 0.00 0.00 0.00 91 1018.1
20240722065630 63 36 0.0 0.0 0.00 0.00 0.00 91 1018.1
20240722063330 63 38 0.0 0.0 0.00 0.00 0.00 93 1018.5
20240722061200 63 38 0.0 0.0 0.00 0.00 0.00 93 1018.7
20240722054929 62 38 0.0 0.0 0.00 0.00 0.00 92 1018.7
20240722052729 63 38 0.0 0.0 0.00 0.00 0.00 91 1019.0